This demonstration page uses our WeatherBlox Daily Observations layout. Learn more.

Left ArrowRight Arrow

Hourly Observations for March 29, 2015

Temp ( °F °C ) Dew Point ( °F °C ) Humidity (%) Winds ( mph kmh ) Pressure ( in mb ) Visibility ( mi km ) Precip ( " mm )
12:15 am 00:15 Clear 30 -1 9 -13 40 40 NNW 18 30 30.30 1026 10 16 N/A
12:35 am 00:35 Clear 30 -1 9 -13 40 40 NNW 13 20 30.30 1026 10 16 N/A
12:55 am 00:55 Clear 28 -2 9 -13 43 43 NNW 10 17 30.30 1026 10 16 N/A
1:15 am 01:15 Clear 28 -2 9 -13 43 43 NNW 16 26 30.30 1026 10 16 N/A
1:35 am 01:35 Clear 28 -2 9 -13 43 43 NNW 13 20 30.30 1026 10 16 N/A
1:55 am 01:55 Clear 28 -2 9 -13 43 43 NNW 14 22 30.33 1027 10 16 N/A
2:15 am 02:15 Clear 28 -2 9 -13 43 43 NNW 14 22 30.33 1027 10 16 N/A
2:35 am 02:35 Clear 28 -2 10 -12 47 47 NW 12 19 30.33 1027 10 16 N/A
2:55 am 02:55 Clear 27 -3 10 -12 50 50 NW 12 19 30.33 1027 10 16 N/A
3:15 am 03:15 Clear 27 -3 10 -12 50 50 NNW 16 26 30.33 1027 10 16 N/A
3:35 am 03:35 Clear 27 -3 10 -12 50 50 NW 14 22 30.33 1027 10 16 N/A
3:55 am 03:55 Clear 27 -3 10 -12 50 50 NW 10 17 30.33 1027 10 16 N/A
4:15 am 04:15 Clear 27 -3 10 -12 50 50 NW 10 17 30.33 1027 10 16 N/A
4:35 am 04:35 Clear 27 -3 10 -12 50 50 NW 10 17 30.33 1027 10 16 N/A
4:55 am 04:55 Clear 25 -4 12 -11 59 59 NW 13 20 30.33 1027 10 16 N/A
5:15 am 05:15 Clear 25 -4 12 -11 59 59 NW 9 15 30.36 1028 10 16 N/A
5:35 am 05:35 Clear 27 -3 10 -12 50 50 NW 8 13 30.36 1028 10 16 N/A
5:55 am 05:55 Clear 25 -4 10 -12 54 54 NW 6 9 30.36 1028 10 16 N/A
6:15 am 06:15 Clear 23 -5 12 -11 63 63 NW 7 11 30.36 1028 10 16 N/A
6:35 am 06:35 Clear 23 -5 12 -11 63 63 NW 7 11 30.39 1029 10 16 N/A
6:55 am 06:55 Clear 23 -5 12 -11 63 63 NNW 7 11 30.39 1029 10 16 N/A
7:15 am 07:15 Sunny 23 -5 12 -11 63 63 NW 7 11 30.39 1029 10 16 N/A
7:35 am 07:35 Sunny 23 -5 12 -11 63 63 NW 10 17 30.42 1030 10 16 N/A
7:55 am 07:55 Sunny 27 -3 14 -10 59 59 NW 8 13 30.42 1030 10 16 N/A
8:15 am 08:15 Sunny 28 -2 14 -10 55 55 NW 13 20 30.42 1030 10 16 N/A
8:35 am 08:35 Sunny 28 -2 14 -10 55 55 NNW 12 19 30.42 1030 10 16 N/A
8:55 am 08:55 Sunny 30 -1 12 -11 47 47 NW 8 13 30.42 1030 10 16 N/A
9:15 am 09:15 Sunny 30 -1 14 -10 51 51 NNW 10 17 30.42 1030 10 16 N/A
9:35 am 09:35 Sunny 32 undefined 12 -11 44 44 NW 12 19 30.42 1030 10 16 N/A
9:55 am 09:55 Sunny 32 undefined 14 -10 47 47 NW 14 22 30.45 1031 10 16 N/A
10:15 am 10:15 Sunny 32 undefined 14 -10 47 47 NNW 8 13 30.45 1031 10 16 N/A
10:35 am 10:35 Sunny 32 undefined 14 -10 47 47 NW 12 19 30.45 1031 10 16 N/A
10:55 am 10:55 Sunny 34 1 12 -11 41 41 N 13 20 30.45 1031 10 16 N/A
11:15 am 11:15 Sunny 34 1 12 -11 41 41 N 8 13 30.45 1031 10 16 N/A
11:35 am 11:35 Sunny 36 2 12 -11 38 38 N 10 17 30.42 1030 10 16 N/A
11:55 am 11:55 Sunny 36 2 10 -12 35 35 NNW 6 9 30.42 1030 10 16 N/A
12:15 pm 12:15 Sunny 36 2 14 -10 41 41 NNW 3 6 30.42 1030 10 16 N/A
12:35 pm 12:35 Sunny 37 3 12 -11 35 35 NNE 6 9 30.39 1029 10 16 N/A
12:55 pm 12:55 Sunny 37 3 12 -11 35 35 NW 8 13 30.39 1029 10 16 N/A
1:15 pm 13:15 Sunny 39 4 14 -10 36 36 NW 8 13 30.39 1029 10 16 N/A
1:35 pm 13:35 Sunny 41 5 14 -10 33 33 N 8 13 30.39 1029 10 16 N/A
1:55 pm 13:55 Sunny 41 5 12 -11 31 31 N 5 7 30.36 1028 10 16 N/A
2:15 pm 14:15 Sunny 41 5 12 -11 31 31 NNW 5 7 30.36 1028 10 16 N/A
2:35 pm 14:35 Sunny 43 6 14 -10 31 31 N 5 7 30.36 1028 10 16 N/A
2:55 pm 14:55 Sunny 43 6 14 -10 31 31 NNW 7 11 30.33 1027 10 16 N/A
3:15 pm 15:15 Sunny 43 6 12 -11 29 29 N N/A 30.33 1027 10 16 N/A
3:35 pm 15:35 Sunny 43 6 10 -12 26 26 SSE 3 6 30.30 1026 10 16 N/A
3:55 pm 15:55 Sunny 45 7 12 -11 27 27 N N/A 30.30 1026 10 16 N/A
4:15 pm 16:15 Sunny 45 7 12 -11 27 27 W 6 9 30.30 1026 10 16 N/A
4:35 pm 16:35 Sunny 46 8 14 -10 27 27 WSW 8 13 30.30 1026 10 16 N/A
4:55 pm 16:55 Sunny 46 8 14 -10 27 27 WNW 6 9 30.30 1026 10 16 N/A
5:15 pm 17:15 Sunny 46 8 14 -10 27 27 N N/A 30.27 1025 10 16 N/A
5:35 pm 17:35 Sunny 46 8 12 -11 25 25 W 3 6 30.27 1025 10 16 N/A
5:55 pm 17:55 Sunny 46 8 12 -11 25 25 undefined N/A 30.24 1024 10 16 N/A
6:15 pm 18:15 Sunny 46 8 12 -11 25 25 S 6 9 30.24 1024 10 16 N/A
6:35 pm 18:35 Sunny 46 8 12 -11 25 25 S 6 9 30.24 1024 10 16 N/A
6:55 pm 18:55 Sunny 46 8 12 -11 25 25 S 9 15 30.21 1023 10 16 N/A
7:15 pm 19:15 Sunny 45 7 12 -11 27 27 SSE 6 9 30.21 1023 10 16 N/A
7:35 pm 19:35 Clear 45 7 12 -11 27 27 S 9 15 30.21 1023 10 16 N/A
7:55 pm 19:55 Clear 45 7 14 -10 29 29 S 9 15 30.21 1023 10 16 N/A
8:15 pm 20:15 Clear 43 6 14 -10 31 31 S 7 11 30.21 1023 10 16 N/A
8:35 pm 20:35 Clear 41 5 14 -10 33 33 S 7 11 30.21 1023 10 16 N/A
8:55 pm 20:55 Clear 43 6 14 -10 31 31 SSE 7 11 30.21 1023 10 16 N/A
9:15 pm 21:15 Clear 43 6 14 -10 31 31 SSE 9 15 30.18 1022 10 16 N/A
9:35 pm 21:35 Clear 41 5 14 -10 33 33 SSE 7 11 30.18 1022 10 16 N/A
9:55 pm 21:55 Clear 43 6 14 -10 31 31 S 8 13 30.18 1022 10 16 N/A
10:15 pm 22:15 Clear 41 5 14 -10 33 33 S 8 13 30.15 1021 10 16 N/A
10:35 pm 22:35 Clear 41 5 14 -10 33 33 S 10 17 30.15 1021 10 16 N/A
10:55 pm 22:55 Clear 41 5 14 -10 33 33 S 7 11 30.15 1021 10 16 N/A
11:15 pm 23:15 Partly Cloudy 41 5 14 -10 33 33 S 8 13 30.15 1021 10 16 N/A
11:35 pm 23:35 Partly Cloudy 41 5 16 -9 36 36 S 8 13 30.15 1021 10 16 N/A
11:55 pm 23:55 Mostly Cloudy 41 5 14 -10 33 33 S 12 19 30.12 1020 10 16 N/A

Powered by AerisWeather